sat.trackr.live / text

‹ back to catalog

STARLINK-35976

NORAD 66534 · 2025-265U

PAYLOAD ACTIVE UNKNOWN

§ Identity

Operator
Country
US
Launch date
2025-11-19
Launch site
AFETR
Launch vehicle
Mass (kg)
RCS (m²)

Purposes: comms

External: N2YO · Heavens-Above · Gunter

§ Orbital elements

Epoch: 2026-05-25T05:17:49.684416Z

Period
94.27 min
Inclination
43.0019°
Eccentricity
0.0000361
Mean motion
15.27594932 rev/d
Perigee alt
482.8 km
Apogee alt
483.3 km
Semi-major
6,861.1 km
B*
2.7103e-4
RAAN
206.0895°
Arg perigee
80.9630°
Mean anomaly
279.1262°
Rev number
2,881

§ Raw data

STARLINK-359761 66534U 25265U   26145.22071394  .00007207  00000+0  27103-3 0  99912 66534  43.0019 206.0895 0000361  80.9630 279.1262 15.27594932 28814

JSON: /api/v1/satellites/66534 · /tle

For live sub-satellite position, see the globe view (requires WebGL).

§ Visibility from observer

Set your observer location to see the next 7 days of passes ≥ 10°. The values pass through the URL so the page stays shareable.

No JS? Fill the form by hand. The geolocation button needs JavaScript.